BEIDOU IGSO-6

Last updated on Sun Feb 19 2023 00:02:47 GMT+0000 (Coordinated Universal Time)

1 41434U 16021A 23048.96368792 -.00000128 00000+0 00000+0 0 9993 2 41434 58.4594 50.2981 0049189 225.4320 315.2055 1.00278123 25290

Satellite not in orbit

BEIDOU IGSO-6